STARLINK-34716, 65352

Orbit data source: Space-Track

STARLINK-34716, 65352 is a payload satellite owned by SpaceX/Seattle (US) in LEO that was launched on Thu, 28 Aug 2025 UTC via an FALCON 9 launch vehicle from the Air Force Eastern Test Range (AFETR). Payload-class satellites include a variety of spacecraft equipped with specific instruments for various scientific and technological missions. These include communications satellites like Starlink; space stations such as the ISS; scientific satellites like the Hubble; Earth observation satellites from companies like Planet Labs, Umbra, and HawkEye 360; GPS; miniature CubeSats for education and research; and military/defense satellites.

Loading next visibility...
Identifier
65352, 2025-190B
Orbit
LEO
Country
Flag of USUS
Related business
Manufacturer
SpaceX/Seattle
Mission
Operational Commercial Communications
Bus & Motor
STARLINK V2MO, Unknown motor
Mass
575 kg wet, ~530 kg dry
Launch date (UTC)
2025-08-28 (7 months ago)
Launch vehicle
FALCON 9
Launch site
Air Force Eastern Test Range (AFETR)
Object type
Payload
Rocket body
Debris
Shape & HBR
Box + 2 Pan, 17.7 m
Radar Cross Section
36.964 m², Large (>1 m²)

Expand to show TLE details & history
Last TLE update: 12 hours ago

TLE from 12 hours ago
0 STARLINK-34716
1 65352U 25190B   26094.15327724  .00046053  00000-0  15568-2 0  9995
2 65352  53.1600  49.9130 0001338  98.0964 262.0188 15.30213518 33658
Epoch: 2026-04-04T03:40Z
TLE epoch observation values (Epoch: 2026-04-04T03:40:43.153Z)
Latitude
-0.00007°
Longitude
162.256°
Altitude
476.202 km
Speed
7.629 km/s
True Right ascension
03h 19m 39s
True Declination
0° 00' 00"
Sunlit
Object was in daylight at epoch
Visualization orbit readout
Latitude
Unknown
Longitude
Unknown
Altitude
Unknown
Speed
Unknown
Apparent Right ascension
Unknown
Apparent Declination
Unknown
Sunlit
N/A
Visualization observer readout
Local Sidereal Time
21:09:46
Azimuth
Unknown
Elevation
Unknown
Doppler factor
Unknown
Orbital elements
Apogee altitude
476.348 km
Perigee altitude
474.514 km
Semi-major axis
6,853.568 km
Eccentricity
0.00013
Inclination
53.16°
RAAN
49.913°
Arg. of periapsis
98.0964°
True anomaly
262.00362°
Mean anomaly
262.0188°
Eccentric anomaly
262.01121°
Mean motion
3.82532 °/min
Orbital period
94.11 mins
BSTAR
0.0015568
Loading maneuver chart data...
Computing Atmospheric mass density...
Loading historical data...
Loading historical data...
Loading historical data...
Loading historical data...
Loading historical data...
Loading historical data...
Loading historical data...

Documentation

Showing up to 5 results
|